Wind_Speed
3 3 3 3 4 4 3 3 2 2 2 2 2 2 2 2 2 2 3 3 4 4 4 4 5 4 5 5 5 6 7 7 7 7 7 7 7 7 7 7 7 7 7 6 7 6 6 6 6
3 3 3 3 3 4 3 3 2 2 2 2 2 2 2 2 2 3 4 4 5 5 5 5 6 6 6 6 7 7 7 7 7 7 7 7 7 7 7 7 8 8 8 7 7 6 7 7 6
2 3 3 3 3 3 3 3 2 2 2 3 3 3 3 3 3 4 4 5 5 5 6 6 6 7 7 7 7 7 7 7 7 7 8 8 7 7 7 8 8 8 8 8 8 7 7 7 7
2 3 3 3 3 3 3 3 3 3 3 3 3 3 3 4 4 5 5 5 6 6 6 6 7 7 7 7 7 7 8 8 7 8 7 7 7 7 7 8 9 9 8 8 8 8 8 8 8
2 2 3 2 2 3 3 3 3 3 3 3 3 3 4 5 5 6 6 6 6 6 7 7 7 7 7 7 7 7 7 7 7 7 7 7 7 7 7 8 8 8 9 9 9 9 9 8 8
1 2 3 3 3 3 3 3 3 3 3 3 4 4 5 5 6 6 6 7 7 7 8 7 7 7 7 7 8 8 7 7 7 8 8 8 8 8 8 8 8 9 9 10 10 9 9 9 8
1 2 2 3 3 3 3 3 3 3 3 4 4 5 5 6 6 6 6 6 7 7 8 7 7 7 7 8 8 8 8 7 7 8 8 8 8 8 8 8 9 9 9 9 10 10 9 9 9
2 2 2 3 3 3 3 3 3 3 4 5 5 5 6 6 6 6 6 6 7 7 7 8 8 8 8 8 8 9 8 8 8 8 8 8 8 8 8 8 8 8 9 9 10 10 10 10 10
2 2 2 3 3 3 3 3 3 4 5 5 5 5 6 6 6 7 7 7 7 8 8 8 8 9 9 8 9 9 8 8 8 8 8 8 8 7 7 7 8 8 8 9 9 9 9 9 9
3 3 3 3 4 4 4 4 4 5 5 5 6 6 6 7 7 7 8 8 8 8 8 8 8 9 9 9 9 8 8 8 8 8 8 8 7 7 7 7 8 8 8 9 9 10 10 9 9
4 4 4 5 5 5 4 4 5 5 6 6 6 7 7 7 7 8 8 8 8 8 8 8 8 8 8 8 8 8 8 8 8 8 8 8 7 8 8 8 7 8 8 8 8 9 9 10 10
6 5 5 5 5 5 5 6 6 6 7 7 7 7 7 7 8 8 9 8 8 8 8 8 8 8 8 8 8 8 8 7 7 7 7 7 7 7 7 7 7 7 8 7 8 9 9 9 10
7 7 7 6 6 6 7 7 7 7 7 8 8 8 8 8 8 9 9 9 8 8 8 8 8 8 8 9 9 8 8 7 7 7 7 7 7 7 7 8 8 7 7 7 8 8 8 9 10
8 8 8 8 7 7 8 8 9 9 9 9 9 9 9 9 9 9 9 9 9 9 9 9 9 8 8 9 9 9 8 8 8 7 7 7 7 7 7 7 8 8 8 8 8 8 8 8 9
9 9 9 9 9 9 9 9 10 10 10 10 10 10 10 10 10 10 10 10 10 9 9 9 9 9 9 9 9 9 9 8 7 7 7 6 6 6 6 7 7 8 8 8 8 8 8 8 9
10 10 10 10 11 11 11 11 11 11 11 11 11 11 11 11 11 11 10 10 10 10 9 10 9 9 9 9 8 8 8 8 7 7 6 6 6 6 6 7 7 7 7 8 8 8 8 8 8
11 11 12 12 12 12 12 12 12 13 12 12 12 12 12 12 12 12 12 11 11 11 10 9 9 8 8 8 8 7 8 8 8 7 7 7 7 6 7 7 7 7 7 7 8 8 7 8 8
12 13 13 13 13 13 13 13 13 14 13 13 13 13 13 13 12 13 13 12 12 11 10 10 9 9 9 9 8 8 8 8 8 8 8 8 8 7 8 8 8 8 8 8 7 7 8 7 7
13 14 14 14 14 14 14 14 14 14 14 14 14 14 13 13 13 13 13 13 12 12 11 11 10 10 9 9 9 9 9 8 8 9 9 9 8 8 8 8 8 8 8 8 8 8 8 7 6
14 14 14 15 15 15 15 15 14 14 14 15 14 14 14 14 14 13 13 13 13 12 11 11 10 10 10 10 9 10 10 10 9 9 9 9 10 9 9 8 8 7 7 7 7 7 7 7 7
15 15 15 15 16 16 16 16 15 14 15 15 15 15 15 15 14 14 13 13 13 13 12 11 11 11 11 10 10 10 10 11 10 10 9 9 10 10 10 9 9 8 8 8 8 8 7 7 7
15 15 16 16 16 16 15 16 14 14 15 15 15 15 15 15 14 14 13 13 13 13 13 12 11 11 11 11 11 10 11 11 11 10 11 11 11 11 10 10 10 10 10 10 9 9 9 9 9
16 16 16 16 17 17 16 16 15 14 14 15 15 15 15 14 14 14 14 14 14 14 13 13 13 13 13 13 12 12 11 11 11 11 11 11 11 11 11 11 11 11 11 11 10 10 11 10 10
16 16 16 16 16 17 16 16 16 14 14 14 14 14 14 14 14 15 15 14 14 14 14 14 14 15 15 14 14 13 13 13 12 12 12 12 12 12 12 12 13 12 12 11 12 12 11 11 10
16 16 16 16 17 17 16 16 16 14 14 14 14 14 14 15 15 15 15 15 15 15 15 16 16 16 16 15 15 15 15 14 14 14 14 13 13 13 13 13 13 13 13 12 13 13 13 12 12
16 16 16 16 17 17 17 16 15 15 15 15 15 16 16 16 16 15 15 15 16 16 16 16 16 16 16 15 15 15 15 15 15 14 14 15 15 15 14 14 14 14 14 14 13 13 13 13 14
16 16 16 16 16 17 17 17 16 16 16 16 16 16 16 16 16 16 16 16 16 17 17 17 17 16 16 16 16 16 16 16 16 15 15 15 16 16 15 15 14 14 14 14 14 15 14 14 14
17 17 17 17 17 17 17 17 17 16 16 16 17 17 16 16 16 17 17 17 17 18 18 17 17 17 17 17 17 16 16 16 16 16 16 15 16 16 16 16 16 15 15 15 16 16 16 15 15
17 17 18 18 18 18 18 18 17 16 16 16 17 17 17 17 17 17 17 17 18 18 18 17 17 17 18 17 17 17 17 17 17 17 17 17 17 17 18 17 16 16 16 16 16 17 17 16 16
18 18 18 18 18 19 19 20 18 17 17 17 18 18 18 18 18 18 18 18 18 18 18 19 18 18 18 18 17 17 18 18 18 18 18 18 19 19 18 18 17 17 17 17 17 17 17 17 16
Wind_Direction
47 47 49 45 38 24 12 5 357 358 360 358 356 352 351 344 331 321 315 300 295 291 289 286 286 281 275 272 268 266 265 266 266 265 262 260 255 255 254 252 253 255 256 253 253 250 255 257 254
36 35 35 31 26 13 0 354 351 350 353 348 344 340 338 335 323 317 310 300 292 291 289 288 284 282 277 273 271 270 269 269 266 263 261 262 259 258 256 255 257 258 257 251 250 246 253 257 257
26 25 24 22 17 6 356 356 354 352 350 342 336 337 338 334 325 313 308 302 297 296 294 291 287 282 279 275 273 270 270 270 270 267 263 263 263 260 259 258 259 259 257 251 252 255 254 257 260
11 13 7 10 9 354 350 350 348 344 343 339 335 332 330 329 325 318 313 310 307 302 298 295 288 283 281 277 274 272 269 271 270 267 261 258 260 259 260 260 259 257 257 255 252 255 256 262 261
354 1 358 357 344 341 339 339 341 344 339 339 338 333 327 327 323 318 314 312 311 306 301 299 296 288 284 280 277 273 269 269 269 268 266 260 263 263 261 261 260 257 257 258 256 255 257 260 260
354 356 349 343 328 332 335 334 336 342 341 339 339 335 330 328 325 320 316 312 309 303 299 292 291 289 286 283 281 277 269 269 271 271 269 268 265 261 261 262 261 260 260 260 258 253 253 255 255
322 332 340 331 323 325 328 331 336 338 335 334 330 331 333 328 324 321 315 311 308 305 303 295 292 287 285 282 279 278 273 271 273 272 271 270 268 264 263 264 262 260 260 257 254 253 253 252 255
290 313 324 321 323 320 318 324 330 330 327 326 326 326 325 322 320 318 315 311 310 308 304 299 293 283 281 280 280 281 276 274 272 273 270 269 268 267 264 262 262 259 259 257 255 254 254 255 257
278 284 293 297 306 309 305 306 315 319 323 325 325 323 322 319 317 316 314 313 311 310 307 301 293 284 282 281 280 281 279 278 276 273 270 270 267 264 261 262 261 261 261 258 254 251 251 255 256
273 275 280 285 293 299 298 298 308 313 319 319 319 320 319 316 316 316 314 311 310 310 309 306 293 286 283 280 280 280 279 280 279 273 271 270 266 260 259 265 265 261 260 257 254 253 253 254 257
274 277 281 283 289 292 291 292 302 308 311 312 312 314 315 315 314 313 312 309 308 308 307 308 299 291 288 281 279 282 282 283 280 276 271 267 266 259 257 265 265 261 259 258 257 256 255 255 257
274 275 280 282 282 283 284 287 293 299 304 306 306 308 311 312 313 312 312 311 309 308 305 303 299 295 289 285 282 284 285 283 278 276 271 266 264 260 259 263 263 261 261 259 261 262 262 261 258
274 272 276 278 276 275 278 280 288 293 298 297 300 303 306 307 308 311 313 313 311 309 306 303 302 299 295 288 283 287 285 283 278 275 273 267 265 264 262 262 261 260 257 259 258 265 266 264 260
275 270 270 271 272 272 275 279 282 287 292 293 295 298 302 302 303 307 308 310 310 310 307 303 299 296 296 292 285 288 288 280 278 273 273 269 266 264 262 264 263 261 258 259 261 265 269 269 264
273 270 269 270 271 274 277 279 281 284 287 289 291 294 298 299 300 302 303 304 306 309 308 305 302 297 296 297 290 285 288 281 277 274 270 267 269 263 260 263 265 262 260 263 266 267 271 271 267
275 273 273 273 275 276 276 277 279 281 283 285 287 290 293 295 295 296 298 299 300 304 305 304 304 298 297 298 292 288 285 280 274 272 267 265 267 261 259 260 264 261 262 263 267 267 271 276 273
276 275 273 273 275 277 275 274 276 279 280 281 284 286 289 291 291 291 291 292 296 299 299 301 301 299 298 297 289 287 283 278 271 268 270 266 263 262 263 263 265 265 265 266 265 269 277 280 277
275 275 275 274 275 276 274 272 271 275 277 277 280 283 286 287 288 289 290 290 292 294 295 296 298 297 296 293 284 283 284 278 272 266 266 267 263 262 265 267 265 261 262 264 267 273 277 279 270
272 274 275 274 275 276 276 275 272 272 275 276 277 278 281 282 284 286 289 289 289 291 292 292 293 294 290 288 282 282 282 279 274 264 259 260 260 261 263 262 257 252 257 263 267 271 270 272 267
273 275 274 273 275 276 276 277 275 274 275 275 275 275 276 279 281 284 285 287 287 288 289 288 288 291 290 288 284 282 281 279 274 269 264 262 262 262 262 260 257 257 259 264 268 270 264 267 269
273 274 273 273 274 275 275 276 277 274 274 273 272 272 273 275 279 281 282 284 285 284 285 285 285 288 289 288 284 281 280 278 275 272 270 268 266 265 264 262 257 258 262 262 262 264 266 269 271
271 272 272 273 274 275 276 276 276 274 272 271 271 270 271 273 275 277 281 283 281 280 280 281 281 284 286 285 283 280 276 274 273 271 270 269 265 264 264 263 262 259 258 257 257 258 261 267 269
272 272 272 273 274 274 275 276 275 272 271 270 270 271 271 273 274 275 278 280 280 277 278 277 278 282 283 283 283 281 278 275 273 272 269 270 269 266 264 263 261 260 258 255 257 260 262 265 266
274 274 274 273 274 275 275 274 273 271 269 269 269 270 270 271 273 273 276 277 278 277 277 277 278 279 281 282 282 281 279 278 274 271 269 270 268 266 264 264 262 260 257 255 258 258 265 263 264
274 275 276 276 275 275 274 272 272 270 266 266 267 267 269 272 272 273 275 276 277 277 278 278 279 279 280 282 281 280 279 277 273 270 269 268 267 265 263 263 262 261 258 257 257 258 261 262 262
273 272 271 274 276 276 274 272 272 270 269 268 267 268 269 272 274 276 275 275 276 277 277 279 278 277 277 279 280 279 277 275 272 270 267 266 266 266 262 262 262 262 261 259 259 258 260 261 262
272 271 270 271 272 273 274 274 272 270 271 270 270 270 269 270 273 275 275 276 276 276 277 278 277 276 275 277 279 279 275 274 271 269 268 266 266 265 261 259 261 261 261 260 260 260 259 260 261
271 271 270 270 272 273 273 274 274 271 271 270 270 273 269 269 271 274 274 276 278 277 276 276 275 275 275 277 279 277 276 274 271 269 268 267 265 264 262 259 257 260 261 261 260 259 257 258 260
270 269 268 266 267 271 273 272 275 274 273 271 270 271 271 272 272 275 275 277 278 278 276 275 275 275 276 277 278 277 275 272 269 268 267 266 264 264 263 259 258 259 261 261 260 259 258 258 260
270 268 267 266 268 269 270 271 274 275 274 272 270 270 272 272 273 275 276 278 278 278 278 278 276 275 276 276 276 276 275 273 271 269 269 266 264 265 262 260 261 262 261 261 260 259 259 258 258
Height
5898 5897 5897 5898 5898 5898 5896 5896 5895 5894 5893 5893 5892 5891 5891 5891 5891 5892 5889 5887 5886 5886 5885 5885 5884 5883 5883 5882 5882 5882 5882 5881 5881 5881 5880 5880 5880 5880 5879 5879 5879 5879 5879 5879 5878 5878 5878 5878 5878
5898 5897 5898 5898 5897 5897 5896 5895 5894 5894 5893 5892 5891 5891 5890 5890 5889 5889 5887 5886 5885 5885 5884 5883 5883 5882 5882 5881 5881 5880 5880 5880 5880 5879 5879 5879 5878 5878 5878 5878 5877 5877 5877 5877 5877 5877 5877 5877 5877
5897 5897 5898 5898 5897 5897 5896 5895 5894 5893 5892 5892 5891 5890 5890 5889 5888 5887 5886 5885 5884 5883 5883 5882 5881 5881 5880 5880 5879 5879 5879 5878 5878 5878 5877 5877 5877 5876 5876 5876 5876 5876 5876 5876 5876 5876 5876 5876 5876
5897 5898 5898 5897 5896 5896 5895 5894 5893 5893 5892 5891 5890 5890 5889 5888 5887 5886 5885 5884 5883 5882 5881 5881 5880 5880 5879 5878 5878 5877 5877 5877 5876 5876 5875 5875 5875 5875 5875 5874 5874 5874 5874 5874 5874 5874 5874 5874 5874
5897 5897 5897 5896 5896 5895 5894 5894 5893 5892 5892 5891 5890 5889 5888 5887 5886 5885 5884 5883 5882 5881 5880 5879 5879 5878 5877 5877 5876 5876 5875 5875 5875 5874 5874 5873 5873 5873 5873 5873 5873 5872 5872 5872 5872 5872 5872 5873 5873
5897 5897 5897 5896 5895 5894 5894 5893 5892 5892 5891 5890 5889 5888 5887 5886 5885 5884 5883 5882 5881 5880 5879 5878 5877 5877 5876 5875 5875 5874 5874 5873 5873 5872 5872 5872 5871 5871 5871 5871 5871 5871 5871 5871 5870 5870 5871 5871 5871
5897 5896 5895 5895 5894 5894 5893 5892 5892 5891 5890 5889 5888 5887 5886 5885 5884 5883 5882 5880 5879 5878 5878 5877 5876 5875 5874 5874 5873 5872 5872 5871 5871 5871 5870 5870 5870 5869 5869 5869 5869 5869 5869 5869 5869 5869 5869 5869 5869
5895 5896 5895 5894 5894 5893 5893 5891 5891 5890 5889 5889 5888 5887 5885 5884 5883 5882 5881 5879 5878 5877 5876 5875 5874 5873 5873 5872 5871 5871 5870 5870 5869 5869 5868 5868 5868 5867 5867 5867 5867 5867 5867 5867 5867 5867 5867 5867 5867
5894 5896 5894 5894 5893 5892 5891 5891 5890 5889 5888 5887 5886 5886 5885 5883 5882 5881 5880 5878 5877 5876 5875 5874 5873 5872 5871 5870 5870 5869 5868 5868 5867 5867 5866 5866 5866 5865 5865 5865 5865 5865 5865 5865 5865 5865 5865 5865 5866
5894 5894 5893 5893 5892 5891 5890 5890 5889 5888 5887 5886 5886 5884 5883 5882 5881 5880 5878 5877 5876 5875 5873 5872 5871 5870 5869 5868 5868 5867 5866 5866 5865 5865 5864 5864 5864 5863 5863 5863 5863 5863 5863 5863 5863 5863 5863 5864 5864
5892 5892 5892 5891 5891 5890 5889 5889 5888 5887 5887 5886 5885 5884 5882 5881 5880 5878 5877 5876 5875 5873 5872 5870 5869 5868 5867 5867 5866 5865 5864 5864 5863 5863 5862 5862 5862 5862 5862 5862 5862 5861 5861 5861 5861 5861 5861 5861 5861
5891 5890 5890 5890 5889 5888 5888 5887 5887 5886 5886 5885 5883 5882 5881 5880 5878 5877 5876 5875 5873 5872 5870 5869 5868 5866 5866 5865 5864 5863 5862 5862 5861 5861 5861 5860 5860 5860 5860 5860 5860 5860 5860 5860 5860 5860 5860 5859 5859
5889 5888 5888 5888 5887 5887 5886 5886 5885 5885 5884 5883 5882 5880 5879 5878 5877 5876 5874 5873 5872 5870 5869 5868 5866 5865 5864 5863 5862 5861 5861 5860 5860 5859 5859 5859 5859 5859 5858 5858 5858 5859 5859 5858 5858 5858 5858 5858 5858
5887 5886 5886 5886 5886 5885 5885 5884 5884 5883 5882 5881 5880 5879 5878 5877 5876 5874 5873 5872 5870 5869 5867 5866 5864 5863 5862 5861 5861 5860 5859 5858 5858 5858 5857 5857 5857 5857 5857 5857 5857 5857 5857 5857 5856 5856 5856 5856 5855
5884 5884 5884 5884 5883 5883 5883 5882 5881 5881 5880 5879 5878 5877 5876 5875 5874 5873 5871 5870 5868 5867 5865 5864 5863 5861 5860 5860 5859 5858 5857 5857 5856 5856 5856 5856 5856 5855 5855 5855 5855 5855 5855 5855 5855 5855 5854 5854 5853
5882 5882 5882 5882 5881 5880 5882 5881 5879 5878 5877 5876 5876 5875 5874 5873 5872 5871 5869 5868 5867 5865 5864 5862 5861 5860 5859 5858 5857 5856 5856 5855 5855 5854 5854 5854 5854 5854 5854 5854 5854 5854 5854 5854 5853 5853 5853 5852 5852
5879 5879 5879 5879 5878 5877 5877 5877 5876 5875 5874 5874 5873 5872 5872 5871 5870 5868 5867 5866 5865 5863 5862 5861 5859 5858 5857 5856 5855 5855 5854 5853 5853 5853 5853 5852 5852 5852 5852 5852 5852 5852 5852 5852 5852 5851 5851 5850 5850
5877 5876 5876 5876 5875 5874 5874 5874 5873 5872 5871 5871 5870 5870 5869 5868 5867 5866 5865 5864 5863 5861 5860 5859 5858 5857 5856 5855 5854 5853 5853 5852 5851 5851 5851 5851 5851 5850 5850 5850 5850 5850 5850 5850 5850 5850 5849 5849 5848
5873 5873 5872 5872 5871 5871 5870 5870 5870 5869 5868 5868 5867 5867 5866 5865 5864 5863 5862 5861 5860 5859 5858 5857 5856 5855 5854 5853 5852 5851 5851 5850 5849 5849 5849 5849 5849 5848 5848 5848 5848 5848 5848 5849 5848 5848 5848 5847 5847
5869 5869 5869 5868 5867 5867 5867 5866 5866 5865 5865 5865 5864 5863 5863 5862 5862 5861 5860 5859 5858 5857 5856 5855 5854 5853 5852 5851 5850 5849 5849 5848 5847 5847 5847 5846 5846 5846 5846 5846 5846 5846 5847 5847 5847 5847 5846 5846 5846
5865 5865 5865 5864 5864 5863 5863 5863 5863 5862 5861 5861 5860 5860 5859 5859 5859 5858 5857 5856 5855 5854 5853 5852 5851 5851 5850 5849 5848 5847 5846 5846 5845 5845 5844 5844 5844 5844 5844 5844 5844 5844 5845 5845 5844 5845 5845 5844 5844
5861 5861 5860 5860 5860 5860 5860 5859 5859 5858 5858 5857 5857 5856 5856 5855 5855 5854 5854 5853 5852 5851 5850 5850 5849 5848 5847 5847 5846 5845 5844 5843 5843 5843 5842 5842 5842 5841 5841 5841 5842 5842 5842 5842 5842 5842 5843 5842 5842
5857 5856 5856 5856 5856 5856 5855 5855 5856 5854 5854 5854 5853 5852 5852 5852 5851 5851 5850 5849 5848 5848 5847 5847 5846 5846 5845 5844 5843 5842 5841 5841 5840 5840 5840 5839 5839 5839 5839 5839 5839 5839 5839 5840 5840 5840 5840 5840 5840
5852 5852 5852 5852 5852 5852 5852 5851 5851 5851 5850 5850 5849 5849 5848 5848 5848 5847 5846 5846 5845 5845 5844 5843 5843 5842 5841 5841 5840 5839 5838 5838 5837 5837 5836 5836 5836 5836 5836 5836 5836 5836 5836 5837 5837 5837 5838 5837 5838
5848 5849 5849 5848 5848 5848 5847 5847 5848 5847 5846 5846 5846 5845 5845 5844 5844 5843 5842 5842 5842 5841 5840 5840 5839 5838 5838 5837 5836 5835 5835 5834 5833 5833 5833 5833 5833 5833 5833 5833 5833 5833 5833 5834 5834 5834 5835 5835 5835
5844 5845 5845 5845 5844 5843 5843 5842 5844 5842 5842 5841 5841 5841 5840 5840 5840 5839 5838 5838 5837 5837 5836 5836 5835 5834 5833 5833 5832 5831 5830 5830 5829 5829 5829 5829 5829 5829 5829 5829 5829 5830 5830 5830 5831 5831 5831 5832 5832
5839 5839 5840 5840 5839 5839 5838 5838 5839 5838 5837 5837 5837 5836 5835 5835 5835 5835 5834 5833 5833 5832 5832 5831 5830 5830 5829 5828 5827 5827 5826 5826 5825 5825 5825 5825 5825 5825 5825 5825 5826 5826 5826 5827 5827 5827 5828 5828 5828
5835 5834 5835 5834 5834 5834 5834 5834 5834 5833 5833 5833 5832 5832 5831 5831 5831 5830 5830 5829 5828 5827 5827 5826 5825 5825 5824 5824 5823 5822 5821 5821 5821 5820 5820 5820 5820 5821 5821 5821 5821 5822 5822 5822 5823 5823 5824 5824 5825
5829 5829 5829 5829 5829 5830 5829 5832 5830 5829 5829 5828 5828 5827 5827 5826 5826 5825 5825 5824 5823 5823 5822 5821 5820 5820 5819 5819 5818 5817 5817 5816 5816 5816 5816 5815 5816 5816 5816 5816 5817 5818 5818 5818 5819 5819 5820 5820 5821
5824 5824 5824 5824 5824 5824 5824 5827 5825 5824 5824 5823 5823 5822 5822 5821 5821 5820 5819 5819 5818 5817 5817 5816 5815 5815 5814 5814 5813 5812 5812 5811 5811 5810 5810 5810 5810 5810 5811 5811 5812 5813 5813 5814 5814 5814 5815 5816 5816